Voltar ao catálogo

COSMOS 836

AtivoMilitarLEO
NORAD 8923·PAYLOAD·🇷🇺 Russia

Lançado Jun 29, 1976 de Plesetsk Cosmodrome

Loading…

Próximas Passagens (próximas 24 horas)

TLE

AtualizadoSource: Space-Track

Época: Sep 14, 2026, 12:12 UTC

1  8923U 76061A   26257.50881091  .00000108  00000-0  47622-4 0  9990
2  8923  74.0544 171.9572 0017237  24.3798 335.8166 14.34130204623019

Acompanhe COSMOS 836 em tempo real com AllMySat

Download on the App Store